STARLINK-32188, 60365

Orbit data source: Space-Track

STARLINK-32188, 60365 is a payload satellite owned by SpaceX/Seattle (US) in LEO that was launched on Sun, 04 Aug 2024 UTC via an FALCON 9 launch vehicle from the Air Force Western Test Range (AFWTR). Payload-class satellites include a variety of spacecraft equipped with specific instruments for various scientific and technological missions. These include communications satellites like Starlink; space stations such as the ISS; scientific satellites like the Hubble; Earth observation satellites from companies like Planet Labs, Umbra, and HawkEye 360; GPS; miniature CubeSats for education and research; and military/defense satellites.

Loading next visibility...
Identifier
60365, 2024-138L
Orbit
LEO
Country
Flag of USUS
Related business
Manufacturer
SpaceX/Seattle
Mission
Operational Commercial Communications
Bus & Motor
STARLINK V2M, Unknown motor
Mass
730 kg wet, ~700 kg dry
Launch date (UTC)
2024-08-04 (2 years ago)
Launch vehicle
FALCON 9
Launch site
Air Force Western Test Range (AFWTR)
Object type
Payload
Rocket body
Debris
Shape & HBR
Box + 2 Pan, 17.7 m
Radar Cross Section
33.884 m², Large (>1 m²)

Expand to show TLE details & history
Last TLE update: 23 hours ago

TLE from 23 hours ago
0 STARLINK-32188
1 60365U 24138L   26257.70237303 -.00000325  00000-0  13148-5 0  9998
2 60365  53.1604 150.4321 0001616  74.5352 285.5828 15.31696013119584
Epoch: 2026-09-14T16:51Z
TLE epoch observation values (Epoch: 2026-09-14T16:51:25.029Z)
Latitude
-0.00002°
Longitude
-96.10108°
Altitude
471.355 km
Speed
7.632 km/s
True Right ascension
10h 01m 43s
True Declination
0° 00' 00"
Sunlit
Object was in daylight at epoch
Visualization orbit readout
Latitude
Unknown
Longitude
Unknown
Altitude
Unknown
Speed
Unknown
Apparent Right ascension
Unknown
Apparent Declination
Unknown
Sunlit
N/A
Visualization observer readout
Local Sidereal Time
08:42:14
Azimuth
Unknown
Elevation
Unknown
Doppler factor
Unknown
Orbital elements
Apogee altitude
472.115 km
Perigee altitude
469.902 km
Semi-major axis
6,849.145 km
Eccentricity
0.00016
Inclination
53.1604°
RAAN
150.4321°
Arg. of periapsis
74.5352°
True anomaly
285.56496°
Mean anomaly
285.5828°
Eccentric anomaly
285.57388°
Mean motion
3.82903 °/min
Orbital period
94.02 mins
BSTAR
0.0000013148
Loading maneuver chart data...
Computing Atmospheric mass density...
Loading historical data...
Loading historical data...
Loading historical data...
Loading historical data...
Loading historical data...
Loading historical data...
Loading historical data...

Documentation

Showing up to 5 results
|